Flag for Tajikistan Weather past 2 weeks in Dushanbe, Tajikistan

Now
57 °F

Passing clouds.


Feels Like: 57 °F
Forecast: 42 / 67 °F
Wind: 1 mph from North

Location: Dushanbe Airport


UV Index: 5 (Moderate)

Visibility: N/A


Pressure: 30.09 "Hg

Humidity: 63%

Dew point: 45 °F

Location of DushanbeLocation

Historic Weather in Dushanbe

°F

Dushanbe temperature yesterday

Maximum temperature yesterday: 61 °F (at 2:00 PM)
Minimum temperature yesterday: 52 °F (at 12:00 AM)
Average temperature yesterday: 55 °F

Past Weeks' High & Low Weather Summary

 TemperatureHumidityPressure
High73 °F (Apr 15, 2:00 PM)100% (Apr 5, 3:30 AM)30.39 "Hg (Apr 5, 3:30 AM)
Low41 °F (Apr 8, 5:00 AM)12% (Apr 9, 4:30 PM)29.86 "Hg (Apr 3, 10:00 PM)
Average56 °F67%30.10 "Hg
* Reported Apr 3 10:00 PM — Apr 18 10:30 PM, Dushanbe, Weather by CustomWeather, © 2014

Note: Actual official high and low records may vary slightly from our data, if they occured in-between our weather recording intervals... More about our weather records

Advertising

Historic Weather Conditions — Data for Previous 24 hours

 ConditionsComfort  
Time TempWeatherWind HumidityBarometerVisibility
10:30 PM
Apr 18
57 °FPassing clouds.1 mph63%30.09 "HgN/A
10:00 PM57 °FPassing clouds.3 mph59%30.09 "HgN/A
9:30 PM59 °FPassing clouds.3 mph59%30.09 "Hg5 mi
9:00 PM61 °FPassing clouds.1 mph52%30.09 "HgN/A
8:30 PM61 °FPassing clouds.No wind48%30.09 "HgN/A
8:00 PM63 °FPassing clouds.3 mph42%30.07 "HgN/A
7:30 PM64 °FPassing clouds.3 mph32%30.07 "HgN/A
7:00 PM64 °FScattered clouds.3 mph32%30.07 "HgN/A
6:30 PM64 °FScattered clouds.8 mph34%30.07 "HgN/A
6:00 PM66 °FPassing clouds.6 mph30%30.04 "HgN/A
5:30 PM68 °FPassing clouds.6 mph38%30.04 "HgN/A
5:00 PM70 °FPassing clouds.6 mph33%30.04 "HgN/A
4:30 PM70 °FPassing clouds.3 mph31%30.04 "HgN/A
4:00 PM70 °FPassing clouds.6 mph35%30.04 "HgN/A
3:30 PM70 °FPassing clouds.1 mph27%30.04 "HgN/A
3:00 PM70 °FPassing clouds.6 mph33%30.04 "HgN/A
2:30 PM68 °FPassing clouds.8 mph28%30.04 "HgN/A
2:00 PM68 °FScattered clouds.6 mph38%30.04 "HgN/A
1:30 PM68 °FPassing clouds.1 mph43%30.07 "HgN/A
1:00 PM68 °FPassing clouds.1 mph35%30.07 "HgN/A
12:30 PM68 °FPassing clouds.1 mph43%30.07 "HgN/A
12:00 PM66 °FPassing clouds.1 mph43%30.07 "HgN/A
11:30 AM66 °FPassing clouds.1 mph43%30.09 "HgN/A
11:00 AM64 °FPassing clouds.1 mph43%30.09 "HgN/A
10:30 AM63 °FPassing clouds.3 mph59%30.09 "HgN/A
10:00 AM61 °FPassing clouds.3 mph63%30.09 "HgN/A
9:30 AM59 °FPassing clouds.1 mph68%30.09 "HgN/A
9:00 AM57 °FPassing clouds.1 mph72%30.09 "HgN/A
8:30 AM57 °FPassing clouds.1 mph77%30.09 "Hg6 mi
8:00 AM54 °FPassing clouds.No wind88%30.09 "Hg4 mi
7:30 AM52 °FFog.No wind88%30.09 "Hg2 mi
7:00 AM52 °FFog.No wind94%30.09 "Hg2 mi
6:30 AM50 °FFog.1 mph94%30.09 "Hg3 mi
6:00 AM50 °FFog.1 mph94%30.07 "Hg3 mi
5:30 AM50 °FPartly cloudy.1 mph94%30.07 "Hg4 mi
5:00 AM50 °FPartly cloudy.1 mph94%30.07 "Hg4 mi
4:30 AM52 °FPartly cloudy.3 mph88%30.07 "HgN/A
4:00 AM52 °FSprinkles. Fog.8 mph88%30.07 "Hg2 mi
3:30 AM52 °FSprinkles. Fog.3 mph94%30.07 "Hg2 mi
3:00 AM50 °FFog.1 mph94%30.07 "Hg3 mi
2:30 AM50 °FFog.No wind100%30.07 "Hg2 mi
2:00 AM50 °FFog.1 mph94%30.07 "Hg2 mi
1:30 AM52 °FPartly cloudy.No wind94%30.07 "Hg4 mi
1:00 AM54 °FPassing clouds.3 mph88%30.07 "Hg4 mi
12:30 AM54 °FThundershowers. Passing clouds.6 mph88%30.07 "Hg6 mi
12:00 AM54 °FThunderstorms. Mostly cloudy.10 mph88%30.07 "Hg2 mi
11:30 PM
Apr 17
54 °FThundershowers. Mostly cloudy.3 mph88%30.07 "Hg4 mi
11:00 PM54 °FSprinkles. Mostly cloudy.No wind82%30.09 "Hg5 mi
Weather by CustomWeather, © 2014

See weather overview